Weather History for Falls City, NE

Change the Weather History Date:

Wednesday, February 6, 2013

  Actual Average Record
Temperature  
Mean Temperature 45 °F -  
Max Temperature 62 °F 33 °F 68 °F (2009)
Min Temperature 28 °F 14 °F -12 °F (1985)
Degree Days  
Heating Degree Days 20    
Moisture  
Dew Point 33 °F    
Average Humidity 66    
Maximum Humidity 90    
Minimum Humidity 35    
Precipitation  
Precipitation 0.04 in - - ()
Sea Level Pressure  
Sea Level Pressure 29.97 in    
Wind  
Wind Speed 7 mph (SE)    
Max Wind Speed 18 mph    
Max Gust Speed 23 mph    
Visibility 10 miles    
Events Rain    
Averages and records for this station are not official NWS values.
T = Trace of Precipitation, MM = Missing Value Source: NWS Daily Summary

Daily Weather History Graph

Daily Weather History Graph

Search for Another Location

Airport:

Trip Planner

Search our weather history database for the weather conditions in past years. The results will help you decide how hot, cold, wet, or windy it might be!

Date:

Astronomy

Feb. 06, 2013 Rise Set
Actual Time 7:25 AM CST 5:47 PM CST
Civil Twilight 6:57 AM CST 6:16 PM CST
Nautical Twilight 6:25 AM CST 6:48 PM CST
Astronomical Twilight 5:53 AM CST 7:19 PM CST
Moon 4:10 AM CST (2/6) 2:07 PM CST (2/6)
Length of Visible Light 11h 18m
Length of Day
10h 22m
Waning Crescent, 17% of the Moon is Illuminated
Feb 6
Waning Crescent
Feb 10
New
Feb 17
First Quarter
Feb 25
Full
Mar 4
Last Quarter

Hourly Weather History & Observations

Time (CST) Temp. Windchill Dew Point Humidity Pressure Visibility Wind Dir Wind Speed Gust Speed Precip Events Conditions
12:53 AM 32.0 °F 27.5 °F 26.1 °F 79% 30.10 in 10.0 mi SE 4.6 mph - N/A   Clear
1:53 AM 30.0 °F 25.2 °F 25.0 °F 82% 30.09 in 10.0 mi SE 4.6 mph - N/A   Clear
2:53 AM 30.9 °F 25.2 °F 26.1 °F 82% 30.09 in 10.0 mi SSE 5.8 mph - N/A   Clear
3:53 AM 28.9 °F 25.2 °F 24.1 °F 82% 30.07 in 10.0 mi SE 3.5 mph - N/A   Clear
4:53 AM 28.9 °F 22.8 °F 25.0 °F 85% 30.06 in 10.0 mi SE 5.8 mph - N/A   Clear
5:53 AM 28.9 °F 22.8 °F 24.1 °F 82% 30.06 in 10.0 mi ESE 5.8 mph - N/A   Clear
6:53 AM 30.0 °F - 26.1 °F 85% 30.07 in 10.0 mi Calm Calm - N/A   Clear
7:53 AM 30.0 °F 23.2 °F 26.1 °F 85% 30.06 in 10.0 mi SSE 6.9 mph - N/A   Clear
8:53 AM 37.0 °F 29.3 °F 28.9 °F 73% 30.06 in 10.0 mi SSE 11.5 mph - N/A   Clear
9:53 AM 43.0 °F 36.4 °F 30.0 °F 60% 30.05 in 10.0 mi South 12.7 mph - N/A   Clear
10:53 AM 48.9 °F - 30.0 °F 48% 30.02 in 10.0 mi SSE 15.0 mph - N/A   Clear
11:53 AM 51.1 °F - 30.9 °F 46% 30.00 in 10.0 mi South 10.4 mph - N/A   Clear
12:53 PM 57.9 °F - 34.0 °F 41% 29.95 in 10.0 mi SSE 13.8 mph 20.7 mph N/A   Partly Cloudy
1:53 PM 60.1 °F - 32.0 °F 35% 29.90 in 10.0 mi SSE 18.4 mph - N/A   Clear
2:53 PM 61.0 °F - 35.1 °F 38% 29.87 in 10.0 mi South 16.1 mph 23.0 mph N/A   Mostly Cloudy
3:53 PM 62.1 °F - 37.0 °F 39% 29.85 in 10.0 mi SSE 17.3 mph 20.7 mph N/A   Clear
4:53 PM 59.0 °F - 39.9 °F 49% 29.85 in 10.0 mi South 11.5 mph - N/A   Overcast
5:53 PM 55.0 °F - 41.0 °F 59% 29.86 in 10.0 mi SSE 9.2 mph - N/A   Overcast
6:53 PM 53.1 °F - 41.0 °F 64% 29.86 in 10.0 mi ESE 6.9 mph - N/A   Overcast
7:53 PM 52.0 °F - 39.9 °F 63% 29.87 in 10.0 mi ESE 6.9 mph - N/A   Overcast
8:53 PM 52.0 °F - 39.9 °F 63% 29.86 in 10.0 mi SE 6.9 mph - N/A   Overcast
9:53 PM 48.9 °F - 41.0 °F 74% 29.86 in 10.0 mi SSE 5.8 mph - 0.00 in   Overcast
10:53 PM 46.9 °F - 43.0 °F 86% 29.88 in 4.0 mi Calm Calm - 0.04 in Rain Light Rain
11:53 PM 46.9 °F - 44.1 °F 90% 29.88 in 10.0 mi SE 3.5 mph - 0.00 in   Overcast